Time,TemperatureF,DewpointF,PressureIn,WindDirection,WindDirectionDegrees,WindSpeedMPH,WindSpeedGustMPH,Humidity,HourlyPrecipIn,Conditions,Clouds,dailyrainin,SoftwareType,DateUTC
2013-06-06 00:14:00,76.7,75.0,29.88,ESE,120,4.0,13.0,95,0.01,,,0.00,weatherlink.com 1.10,2013-06-06 04:14:00,
2013-06-06 00:29:00,76.8,75.0,29.87,ENE,58,10.0,11.0,95,0.02,,,0.01,weatherlink.com 1.10,2013-06-06 04:29:00,
2013-06-06 00:44:00,77.0,76.0,29.87,East,79,11.0,13.0,95,0.07,,,0.06,weatherlink.com 1.10,2013-06-06 04:44:00,
2013-06-06 00:59:00,77.1,76.0,29.85,NE,54,9.0,14.0,95,0.12,,,0.11,weatherlink.com 1.10,2013-06-06 04:59:00,
2013-06-06 01:14:00,77.2,76.0,29.85,East,84,11.0,14.0,95,0.14,,,0.14,weatherlink.com 1.10,2013-06-06 05:14:00,
2013-06-06 01:29:00,77.2,76.0,29.85,East,89,10.0,18.0,95,0.13,,,0.14,weatherlink.com 1.10,2013-06-06 05:29:00,
2013-06-06 01:44:00,76.9,75.0,29.85,East,95,10.0,26.0,95,0.08,,,0.14,weatherlink.com 1.10,2013-06-06 05:44:00,
2013-06-06 01:59:00,76.1,74.0,29.85,East,92,10.0,16.0,94,0.04,,,0.15,weatherlink.com 1.10,2013-06-06 05:59:00,
2013-06-06 02:14:00,76.1,75.0,29.85,ESE,115,10.0,15.0,95,0.01,,,0.15,weatherlink.com 1.10,2013-06-06 06:14:00,
2013-06-06 02:29:00,76.5,75.0,29.84,East,91,6.0,11.0,95,0.02,,,0.16,weatherlink.com 1.10,2013-06-06 06:29:00,
2013-06-06 02:44:00,76.7,75.0,29.85,ESE,120,3.0,10.0,95,0.07,,,0.21,weatherlink.com 1.10,2013-06-06 06:44:00,
2013-06-06 02:59:00,76.7,75.0,29.85,South,185,1.0,15.0,95,0.68,,,0.83,weatherlink.com 1.10,2013-06-06 06:59:00,
2013-06-06 03:14:00,76.3,75.0,29.84,SE,142,5.0,19.0,95,0.80,,,0.95,weatherlink.com 1.10,2013-06-06 07:14:00,
2013-06-06 03:29:00,75.8,74.0,29.84,SE,127,5.0,12.0,95,0.80,,,0.96,weatherlink.com 1.10,2013-06-06 07:29:00,
2013-06-06 03:44:00,76.0,75.0,29.84,SSE,160,7.0,11.0,95,0.75,,,0.97,weatherlink.com 1.10,2013-06-06 07:44:00,
2013-06-06 03:59:00,76.0,75.0,29.82,ESE,118,8.0,10.0,95,0.14,,,0.98,weatherlink.com 1.10,2013-06-06 07:59:00,
2013-06-06 04:14:00,76.1,75.0,29.82,ENE,72,7.0,16.0,95,0.06,,,1.01,weatherlink.com 1.10,2013-06-06 08:14:00,
2013-06-06 04:29:00,75.8,74.0,29.82,East,85,12.0,18.0,95,0.06,,,1.02,weatherlink.com 1.10,2013-06-06 08:29:00,
2013-06-06 04:44:00,75.7,74.0,29.81,SE,130,6.0,19.0,95,0.05,,,1.02,weatherlink.com 1.10,2013-06-06 08:44:00,
2013-06-06 04:59:00,75.6,74.0,29.80,ESE,109,9.0,15.0,95,0.04,,,1.02,weatherlink.com 1.10,2013-06-06 08:59:00,
2013-06-06 05:14:00,75.5,74.0,29.79,SE,143,12.0,17.0,95,0.01,,,1.02,weatherlink.com 1.10,2013-06-06 09:14:00,
2013-06-06 05:29:00,75.3,74.0,29.79,SE,133,12.0,17.0,95,0.00,,,1.02,weatherlink.com 1.10,2013-06-06 09:29:00,
2013-06-06 05:44:00,75.1,74.0,29.79,East,99,6.0,17.0,95,0.00,,,1.02,weatherlink.com 1.10,2013-06-06 09:44:00,
2013-06-06 05:59:00,75.0,74.0,29.79,ENE,71,11.0,18.0,95,0.00,,,1.02,weatherlink.com 1.10,2013-06-06 09:59:00,
2013-06-06 06:14:00,74.9,73.0,29.78,SE,131,9.0,16.0,95,0.00,,,1.02,weatherlink.com 1.10,2013-06-06 10:14:00,
2013-06-06 06:29:00,74.9,73.0,29.78,East,96,7.0,16.0,95,0.00,,,1.02,weatherlink.com 1.10,2013-06-06 10:29:00,
2013-06-06 06:44:00,74.8,73.0,29.77,SE,143,10.0,15.0,95,0.00,,,1.02,weatherlink.com 1.10,2013-06-06 10:44:00,
2013-06-06 06:59:00,74.6,73.0,29.78,ESE,114,3.0,13.0,95,0.00,,,1.02,weatherlink.com 1.10,2013-06-06 10:59:00,
2013-06-06 07:15:00,74.8,73.0,29.78,SE,125,5.0,12.0,95,0.00,,,1.02,weatherlink.com 1.10,2013-06-06 11:15:00,
2013-06-06 07:30:00,75.0,74.0,29.78,SE,142,10.0,13.0,95,0.00,,,1.02,weatherlink.com 1.10,2013-06-06 11:30:00,
2013-06-06 07:45:00,75.3,74.0,29.79,East,88,5.0,15.0,95,0.00,,,1.02,weatherlink.com 1.10,2013-06-06 11:45:00,
2013-06-06 08:00:00,75.7,74.0,29.80,ESE,123,11.0,14.0,95,0.00,,,1.02,weatherlink.com 1.10,2013-06-06 12:00:00,
2013-06-06 08:15:00,76.1,75.0,29.80,SE,143,10.0,14.0,95,0.00,,,1.02,weatherlink.com 1.10,2013-06-06 12:15:00,
2013-06-06 08:30:00,76.5,75.0,29.81,East,89,2.0,11.0,95,0.00,,,1.02,weatherlink.com 1.10,2013-06-06 12:30:00,
2013-06-06 08:45:00,77.0,76.0,29.81,SE,129,7.0,13.0,95,0.00,,,1.02,weatherlink.com 1.10,2013-06-06 12:45:00,
2013-06-06 09:00:00,77.6,76.0,29.83,SE,143,8.0,11.0,95,0.00,,,1.02,weatherlink.com 1.10,2013-06-06 13:00:00,
2013-06-06 09:15:00,78.2,77.0,29.81,ESE,109,6.0,11.0,95,0.00,,,1.02,weatherlink.com 1.10,2013-06-06 13:15:00,
2013-06-06 09:30:00,78.6,77.0,29.82,ESE,112,7.0,8.0,95,0.00,,,1.02,weatherlink.com 1.10,2013-06-06 13:30:00,
2013-06-06 09:45:00,79.8,78.0,29.83,South,175,15.0,20.0,95,0.00,,,1.02,weatherlink.com 1.10,2013-06-06 13:45:00,
2013-06-06 10:00:00,80.8,79.0,29.83,SSE,158,13.0,20.0,94,0.00,,,1.02,weatherlink.com 1.10,2013-06-06 14:00:00,
2013-06-06 10:15:00,81.1,79.0,29.83,South,170,12.0,22.0,93,0.00,,,1.02,weatherlink.com 1.10,2013-06-06 14:15:00,
2013-06-06 10:30:00,81.4,79.0,29.83,South,175,22.0,27.0,92,0.00,,,1.02,weatherlink.com 1.10,2013-06-06 14:30:00,
2013-06-06 10:45:00,81.6,79.0,29.83,SSE,166,20.0,25.0,91,0.00,,,1.02,weatherlink.com 1.10,2013-06-06 14:45:00,
2013-06-06 11:00:00,82.0,79.0,29.83,South,189,12.0,26.0,91,0.00,,,1.02,weatherlink.com 1.10,2013-06-06 15:00:00,
2013-06-06 11:15:00,82.1,79.0,29.82,South,170,21.0,29.0,90,0.00,,,1.02,weatherlink.com 1.10,2013-06-06 15:15:00,
2013-06-06 11:30:00,82.3,80.0,29.82,South,185,18.0,29.0,91,0.01,,,1.03,weatherlink.com 1.10,2013-06-06 15:30:00,
2013-06-06 11:45:00,82.8,79.0,29.82,SSE,168,19.0,37.0,89,0.01,,,1.03,weatherlink.com 1.10,2013-06-06 15:45:00,
2013-06-06 12:00:00,82.7,79.0,29.83,SSW,193,25.0,37.0,89,0.01,,,1.03,weatherlink.com 1.10,2013-06-06 16:00:00,
2013-06-06 12:15:00,82.5,79.0,29.83,SSE,168,22.0,28.0,90,0.01,,,1.03,weatherlink.com 1.10,2013-06-06 16:15:00,
2013-06-06 12:30:00,82.6,80.0,29.82,South,175,25.0,27.0,90,0.00,,,1.03,weatherlink.com 1.10,2013-06-06 16:30:00,
2013-06-06 12:45:00,83.2,80.0,29.81,South,191,19.0,26.0,90,0.00,,,1.03,weatherlink.com 1.10,2013-06-06 16:45:00,
2013-06-06 13:00:00,83.4,80.0,29.81,SSE,166,18.0,30.0,89,0.00,,,1.03,weatherlink.com 1.10,2013-06-06 17:00:00,
2013-06-06 13:15:00,83.1,80.0,29.81,SSE,164,23.0,31.0,89,0.00,,,1.03,weatherlink.com 1.10,2013-06-06 17:15:00,
2013-06-06 13:30:00,83.2,80.0,29.81,SSW,199,21.0,28.0,89,0.00,,,1.03,weatherlink.com 1.10,2013-06-06 17:30:00,
2013-06-06 13:45:00,83.1,80.0,29.81,South,191,11.0,30.0,89,0.00,,,1.03,weatherlink.com 1.10,2013-06-06 17:45:00,
2013-06-06 14:00:00,83.1,80.0,29.81,South,180,23.0,31.0,89,0.00,,,1.03,weatherlink.com 1.10,2013-06-06 18:00:00,
2013-06-06 14:15:00,83.1,80.0,29.80,SSW,199,24.0,34.0,89,0.00,,,1.03,weatherlink.com 1.10,2013-06-06 18:15:00,
2013-06-06 14:30:00,77.7,72.0,29.83,WSW,239,17.0,28.0,82,0.00,,,1.03,weatherlink.com 1.10,2013-06-06 18:30:00,
2013-06-06 14:45:00,74.8,71.0,29.83,SW,214,3.0,25.0,89,0.19,,,1.22,weatherlink.com 1.10,2013-06-06 18:45:00,
2013-06-06 15:00:00,73.9,72.0,29.83,South,191,23.0,29.0,92,0.21,,,1.24,weatherlink.com 1.10,2013-06-06 19:00:00,
2013-06-06 15:15:00,74.0,72.0,29.82,SSW,200,14.0,26.0,92,0.21,,,1.24,weatherlink.com 1.10,2013-06-06 19:15:00,
2013-06-06 15:30:00,74.7,72.0,29.82,South,189,10.0,22.0,92,0.22,,,1.25,weatherlink.com 1.10,2013-06-06 19:30:00,
2013-06-06 15:45:00,74.1,71.0,29.81,SSW,198,15.0,25.0,91,0.03,,,1.25,weatherlink.com 1.10,2013-06-06 19:45:00,
2013-06-06 16:00:00,74.5,72.0,29.80,SW,222,23.0,28.0,90,0.01,,,1.25,weatherlink.com 1.10,2013-06-06 20:00:00,
2013-06-06 16:15:00,75.0,72.0,29.79,SSW,201,18.0,31.0,90,0.01,,,1.25,weatherlink.com 1.10,2013-06-06 20:15:00,
2013-06-06 16:30:00,75.8,72.0,29.77,SSW,199,24.0,36.0,88,0.01,,,1.26,weatherlink.com 1.10,2013-06-06 20:30:00,
2013-06-06 16:45:00,76.5,73.0,29.77,South,189,24.0,38.0,88,0.01,,,1.26,weatherlink.com 1.10,2013-06-06 20:45:00,
2013-06-06 17:00:00,76.6,73.0,29.79,SSW,200,16.0,31.0,89,0.01,,,1.26,weatherlink.com 1.10,2013-06-06 21:00:00,
2013-06-06 17:15:00,76.8,73.0,29.79,SW,226,7.0,26.0,87,0.01,,,1.26,weatherlink.com 1.10,2013-06-06 21:15:00,
2013-06-06 17:30:00,77.6,73.0,29.79,SW,216,13.0,26.0,86,0.00,,,1.26,weatherlink.com 1.10,2013-06-06 21:30:00,
2013-06-06 17:45:00,77.9,74.0,29.79,South,189,15.0,25.0,87,0.00,,,1.26,weatherlink.com 1.10,2013-06-06 21:45:00,
2013-06-06 18:00:00,77.9,74.0,29.79,South,185,14.0,24.0,87,0.00,,,1.26,weatherlink.com 1.10,2013-06-06 22:00:00,
2013-06-06 18:15:00,77.5,73.0,29.78,SSW,202,10.0,23.0,86,0.00,,,1.26,weatherlink.com 1.10,2013-06-06 22:15:00,
2013-06-06 18:30:00,77.7,74.0,29.77,SW,220,12.0,25.0,88,0.00,,,1.26,weatherlink.com 1.10,2013-06-06 22:30:00,
2013-06-06 18:45:00,78.1,75.0,29.77,WSW,239,13.0,32.0,89,0.00,,,1.26,weatherlink.com 1.10,2013-06-06 22:45:00,
2013-06-06 19:00:00,77.2,74.0,29.77,SSW,199,19.0,29.0,89,0.01,,,1.27,weatherlink.com 1.10,2013-06-06 23:00:00,
2013-06-06 19:15:00,76.9,74.0,29.77,SW,222,15.0,20.0,90,0.02,,,1.28,weatherlink.com 1.10,2013-06-06 23:15:00,
2013-06-06 19:30:00,76.1,72.0,29.79,West,275,9.0,22.0,88,0.02,,,1.28,weatherlink.com 1.10,2013-06-06 23:30:00,
2013-06-06 19:46:00,76.9,73.0,29.79,South,180,17.0,23.0,87,0.02,,,1.28,weatherlink.com 1.10,2013-06-06 23:46:00,
2013-06-06 20:01:00,77.4,73.0,29.81,South,190,19.0,23.0,86,0.01,,,1.28,weatherlink.com 1.10,2013-06-07 00:01:00,
2013-06-06 20:16:00,77.5,73.0,29.81,SSW,205,12.0,18.0,87,0.00,,,1.28,weatherlink.com 1.10,2013-06-07 00:16:00,
2013-06-06 20:31:00,77.6,74.0,29.82,SSW,210,9.0,20.0,87,0.00,,,1.28,weatherlink.com 1.10,2013-06-07 00:31:00,
2013-06-06 20:46:00,78.1,74.0,29.82,SW,218,10.0,20.0,88,0.00,,,1.28,weatherlink.com 1.10,2013-06-07 00:46:00,
2013-06-06 21:01:00,78.5,74.0,29.82,SSW,196,13.0,25.0,87,0.00,,,1.28,weatherlink.com 1.10,2013-06-07 01:01:00,
2013-06-06 21:16:00,78.5,74.0,29.82,SSW,192,13.0,24.0,87,0.00,,,1.28,weatherlink.com 1.10,2013-06-07 01:16:00,
2013-06-06 21:31:00,78.4,74.0,29.83,SW,214,8.0,19.0,87,0.00,,,1.28,weatherlink.com 1.10,2013-06-07 01:31:00,
2013-06-06 21:46:00,78.7,75.0,29.84,South,185,10.0,15.0,87,0.00,,,1.28,weatherlink.com 1.10,2013-06-07 01:46:00,
2013-06-06 22:01:00,78.9,75.0,29.84,South,190,13.0,19.0,87,0.00,,,1.28,weatherlink.com 1.10,2013-06-07 02:01:00,
2013-06-06 22:16:00,79.1,75.0,29.84,SSW,199,6.0,15.0,88,0.00,,,1.28,weatherlink.com 1.10,2013-06-07 02:16:00,
2013-06-06 22:31:00,79.2,75.0,29.84,South,191,7.0,14.0,88,0.00,,,1.28,weatherlink.com 1.10,2013-06-07 02:31:00,
2013-06-06 22:46:00,79.1,76.0,29.85,SSW,210,7.0,13.0,89,0.00,,,1.28,weatherlink.com 1.10,2013-06-07 02:46:00,
2013-06-06 23:01:00,79.1,76.0,29.85,SW,222,2.0,11.0,89,0.00,,,1.28,weatherlink.com 1.10,2013-06-07 03:01:00,
2013-06-06 23:16:00,79.0,76.0,29.85,SW,227,4.0,9.0,90,0.00,,,1.28,weatherlink.com 1.10,2013-06-07 03:16:00,
2013-06-06 23:31:00,78.9,76.0,29.85,SW,224,6.0,13.0,89,0.00,,,1.28,weatherlink.com 1.10,2013-06-07 03:31:00,
2013-06-06 23:46:00,79.0,76.0,29.85,SW,224,4.0,11.0,90,0.00,,,1.28,weatherlink.com 1.10,2013-06-07 03:46:00,